GW3945 Weather Reports


time (UTC)temp
C
wind
direction
speed
KPH
gust
KPH
rain 1hr
cm
rain 24hr
cm
rain mn
cm
humidity
%
barometer
mb
20260831072846 22 222 0.0 0.0 0.00 0.00 0.00 96 1017.1
20260831072341 22 222 0.0 0.0 0.00 0.00 0.00 96 1017.0
20260831071838 22 225 0.0 0.0 0.00 0.00 0.00 96 1017.0
20260831071336 22 223 0.0 0.0 0.00 0.00 0.00 96 1017.0
20260831070832 22 223 0.0 0.0 0.00 0.00 0.00 96 1017.3
20260831070330 22 223 0.0 0.0 0.00 0.00 0.00 96 1017.3
20260831065830 22 223 0.0 0.0 0.00 0.00 0.00 96 1017.0
20260831065328 23 223 0.0 0.0 0.00 0.00 0.00 95 1017.0
20260831064823 23 223 0.0 0.0 0.00 0.00 0.00 95 1017.2
20260831064319 23 223 0.0 0.0 0.00 0.00 0.00 95 1017.3
20260831063815 23 223 0.0 0.0 0.00 0.00 0.00 95 1017.2
20260831063309 23 239 0.0 0.0 0.00 0.00 0.00 95 1017.2
20260831062809 23 226 0.0 0.0 0.00 0.00 0.00 95 1017.2
20260831062305 23 226 0.0 0.0 0.00 0.00 0.00 95 1017.3
20260831061802 23 226 0.0 0.0 0.00 0.00 0.00 95 1017.1
20260831061257 23 226 0.0 0.0 0.00 0.00 0.00 95 1017.1
20260831060754 23 226 0.0 0.0 0.00 0.00 0.00 95 1017.2
20260831060253 23 226 0.0 0.0 0.00 0.00 0.00 94 1017.3
20260831055752 23 226 0.0 0.0 0.00 0.00 0.00 94 1017.3
20260831055247 23 226 0.0 0.0 0.00 0.00 0.00 94 1017.2
20260831054743 23 226 0.0 0.0 0.00 0.00 0.00 94 1017.3
20260831054238 23 225 0.0 0.0 0.00 0.00 0.00 94 1017.2
20260831053736 23 225 0.0 0.0 0.00 0.00 0.00 94 1017.5
20260831053235 23 226 0.0 0.0 0.00 0.00 0.00 93 1017.4
20260831052729 23 238 0.0 0.0 0.00 0.00 0.00 93 1017.2
20260831052223 23 233 0.0 0.0 0.00 0.00 0.00 94 1017.3
20260831051721 23 231 0.0 0.0 0.00 0.00 0.00 94 1017.2
20260831051220 23 231 0.0 0.0 0.00 0.00 0.00 94 1017.2
20260831050715 23 228 0.0 0.0 0.00 0.00 0.00 93 1017.5
20260831050214 23 229 0.0 0.0 0.00 0.00 0.00 93 1017.2
20260831045709 23 226 0.0 0.0 0.00 0.00 0.00 93 1017.2
20260831045204 23 226 0.0 0.0 0.00 0.00 0.00 92 1017.5
20260831044658 23 225 0.0 0.0 0.00 0.00 0.00 93 1017.2
20260831044153 23 227 0.0 0.0 0.00 0.00 0.00 92 1017.2
20260831043649 23 226 0.0 0.0 0.00 0.00 0.00 93 1017.2
20260831043144 23 224 0.0 0.0 0.00 0.00 0.00 93 1017.1
20260831042643 23 224 0.0 0.0 0.00 0.00 0.00 93 1017.4
20260831042138 24 224 0.0 0.0 0.00 0.00 0.00 93 1017.4
20260831041633 24 224 0.0 0.0 0.00 0.00 0.00 93 1017.3
20260831041132 24 225 0.0 0.0 0.00 0.00 0.00 92 1017.3
20260831040622 24 225 0.0 0.0 0.00 0.00 0.00 92 1017.5
20260831040121 24 225 0.0 0.0 0.00 0.00 0.00 92 1017.2
20260831035620 24 225 0.0 0.0 0.00 0.00 0.00 91 1017.3
20260831035114 24 224 0.0 0.0 0.00 0.00 0.00 91 1017.3
20260831034614 24 225 0.0 0.0 0.00 0.00 0.00 90 1017.5
20260831034109 25 225 0.0 0.0 0.00 0.00 0.00 90 1017.7
20260831033605 25 225 0.0 0.0 0.00 0.00 0.00 90 1017.7
20260831033100 25 226 0.0 0.0 0.00 0.00 0.00 89 1017.5
20260831032559 25 228 0.0 0.0 0.00 0.00 0.00 88 1017.4
20260831032055 25 233 0.0 0.0 0.00 0.00 0.00 88 1017.4
20260831031554 25 227 0.0 0.0 0.00 0.00 0.00 88 1017.7
20260831031054 25 227 0.0 0.0 0.00 0.00 0.00 88 1017.3
20260831030553 25 227 0.0 0.0 0.00 0.00 0.00 88 1017.4
20260831030052 25 227 0.0 0.0 0.00 0.00 0.00 87 1017.3
20260831025551 25 227 0.0 0.0 0.00 0.00 0.00 88 1017.3
20260831025046 25 227 0.0 0.0 0.00 0.00 0.00 87 1017.2
20260831024542 26 227 0.0 0.0 0.00 0.00 0.00 85 1017.0
20260831024041 26 227 0.0 0.0 0.00 0.00 0.00 84 1017.3
20260831023539 26 227 0.0 0.0 0.00 0.00 0.00 84 1017.0
20260831023034 26 227 0.0 0.0 0.00 0.00 0.00 80 1017.2
20260831022533 26 227 0.0 0.0 0.00 0.00 0.00 79 1017.0
20260831022029 26 227 0.0 0.0 0.00 0.00 0.00 79 1017.1
20260831021527 26 227 0.0 0.0 0.00 0.00 0.00 79 1017.0
20260831021024 26 227 0.0 0.0 0.00 0.00 0.00 80 1017.1
20260831020519 26 227 0.0 0.0 0.00 0.00 0.00 79 1017.0
20260831020013 26 227 0.0 0.0 0.00 0.00 0.00 79 1016.9
20260831015509 26 225 0.0 0.0 0.00 0.00 0.00 80 1017.0
20260831015004 26 226 0.0 0.0 0.00 0.00 0.00 82 1016.8
20260831014458 26 226 0.0 0.0 0.00 0.00 0.00 81 1016.8
20260831013953 26 226 0.0 0.0 0.00 0.00 0.00 80 1016.8
20260831013449 27 226 0.0 0.0 0.00 0.00 0.00 78 1016.7
20260831012944 27 226 0.0 0.0 0.00 0.00 0.00 77 1016.8
20260831012439 27 226 0.0 0.0 0.00 0.00 0.00 77 1016.8
20260831011938 27 226 0.0 0.0 0.00 0.00 0.00 77 1016.7
20260831011433 27 224 0.0 0.0 0.00 0.00 0.00 76 1016.6
20260831010929 27 224 0.0 0.0 0.00 0.00 0.00 76 1016.8
20260831010424 27 224 0.0 0.0 0.00 0.00 0.00 76 1016.6
20260831005919 27 224 0.0 0.0 0.00 0.00 0.00 76 1016.5
20260831005415 27 221 0.0 0.0 0.00 0.00 0.00 75 1016.5
20260831004909 27 221 0.0 0.0 0.00 0.00 0.00 75 1016.5
20260831004406 27 220 0.0 0.0 0.00 0.00 0.00 75 1016.4
20260831003901 27 218 0.0 0.0 0.00 0.00 0.00 75 1016.3
20260831003357 27 219 0.0 0.0 0.00 0.00 0.00 74 1016.4
20260831002857 28 224 0.0 0.0 0.00 0.00 0.00 75 1016.2
20260831002356 28 216 0.0 0.0 0.00 0.00 0.00 75 1016.4
20260831001851 28 218 0.0 0.0 0.00 0.00 0.00 73 1016.3
20260831001351 28 221 0.0 0.0 0.00 0.00 0.00 74 1016.6
20260831000849 28 213 0.0 0.0 0.00 0.00 0.00 76 1016.5
20260831000344 28 209 0.0 0.0 0.00 0.00 0.00 78 1016.6
20260830235842 28 203 0.0 0.0 0.00 0.00 0.00 78 1016.7
20260830235337 28 213 0.0 0.0 0.00 0.00 0.00 81 1016.5
20260830234833 28 192 0.0 0.0 0.00 0.00 0.00 85 1016.7
20260830234328 29 213 0.0 0.0 0.00 0.00 0.00 83 1016.7
20260830233824 30 228 0.0 0.0 0.00 0.00 0.00 77 1016.2
20260830233319 30 228 0.0 0.0 0.00 0.00 0.00 75 1016.4
20260830232815 30 228 0.0 0.0 0.00 0.00 0.00 70 1016.3
20260830232310 29 228 0.0 0.0 0.00 0.00 0.00 71 1016.1
20260830231806 29 228 0.0 0.0 0.00 0.00 0.00 72 1016.4
20260830231301 29 228 0.0 0.0 0.00 0.00 0.00 76 1016.1
20260830230755 28 228 0.0 0.0 0.00 0.00 0.00 80 1016.2
20260830230251 29 228 0.0 0.0 0.00 0.00 0.00 83 1016.4
20260830225750 29 228 0.0 0.0 0.00 0.00 0.00 81 1016.2
20260830225245 29 228 0.0 0.0 0.00 0.00 0.00 80 1016.2
20260830224744 30 228 0.0 0.0 0.00 0.00 0.00 79 1016.3
20260830224240 30 228 0.0 0.0 0.00 0.00 0.00 77 1016.3
20260830223736 30 228 0.0 0.0 0.00 0.00 0.00 75 1016.3
20260830223232 30 228 0.0 0.0 0.00 0.00 0.00 77 1016.2
20260830222726 30 228 0.0 0.0 0.00 0.00 0.00 78 1016.2
20260830222221 30 228 0.0 0.0 0.00 0.00 0.00 76 1016.1
20260830221717 30 228 0.0 0.0 0.00 0.00 0.00 69 1016.0
20260830221214 30 228 0.0 0.0 0.00 0.00 0.00 67 1016.0
20260830220703 31 228 0.0 0.0 0.00 0.00 0.00 67 1016.2
20260830220202 31 228 0.0 0.0 0.00 0.00 0.00 62 1016.3
20260830215701 31 229 0.0 0.0 0.00 0.00 0.00 61 1016.3
20260830215155 31 227 0.0 0.0 0.00 0.00 0.00 61 1016.2
20260830214651 31 227 0.0 0.0 0.00 0.00 0.00 64 1016.2
20260830214151 31 227 0.0 0.0 0.00 0.00 0.00 65 1016.2
20260830213650 31 227 0.0 0.0 0.00 0.00 0.00 66 1016.0
20260830213146 31 227 0.0 0.0 0.00 0.00 0.00 67 1016.1
20260830212642 31 227 0.0 0.0 0.00 0.00 0.00 67 1016.3
20260830212136 31 226 0.0 0.0 0.00 0.00 0.00 67 1016.3
20260830211632 31 215 0.0 0.0 0.00 0.00 0.00 65 1016.3
20260830211131 31 215 0.0 0.0 0.00 0.00 0.00 65 1016.4
20260830210627 31 215 0.0 0.0 0.00 0.00 0.00 65 1016.2
20260830210126 31 215 0.0 0.0 0.00 0.00 0.00 65 1016.3
20260830205623 31 215 0.0 0.0 0.00 0.00 0.00 65 1016.4
20260830205119 31 215 0.0 0.0 0.00 0.00 0.00 65 1016.4
20260830204618 31 215 0.0 0.0 0.00 0.00 0.00 65 1016.5
20260830204117 31 209 0.0 0.0 0.00 0.00 0.00 65 1016.6
20260830203614 31 205 0.0 0.0 0.00 0.00 0.00 65 1016.7
20260830203113 32 209 0.0 0.0 0.00 0.00 0.00 63 1016.6
20260830202608 31 211 0.0 0.0 0.00 0.00 0.00 63 1016.6
20260830202103 31 192 0.0 0.0 0.00 0.00 0.00 63 1016.7
20260830201602 32 209 0.0 0.0 0.00 0.00 0.00 63 1016.9
20260830201102 31 204 0.0 0.0 0.00 0.00 0.00 63 1016.9
20260830200558 31 206 0.0 0.0 0.00 0.00 0.00 64 1016.9
20260830200057 31 205 0.0 0.0 0.00 0.00 0.00 64 1016.9
20260830195553 32 215 0.0 0.0 0.00 0.00 0.00 64 1017.3
20260830195050 31 217 0.0 0.0 0.00 0.00 0.00 67 1017.3
20260830194551 31 204 0.0 0.0 0.00 0.00 0.00 64 1017.3
20260830194045 31 202 0.0 0.0 0.00 0.00 0.00 65 1017.4
20260830193544 31 201 0.0 0.0 0.00 0.00 0.00 63 1017.5
20260830193040 31 205 0.0 0.0 0.00 0.00 0.00 64 1017.4
20260830192536 31 192 0.0 0.0 0.00 0.00 0.00 65 1017.5
20260830192035 30 207 0.0 0.0 0.00 0.00 0.00 67 1017.8
20260830191531 31 207 0.0 0.0 0.00 0.00 0.00 65 1017.4
20260830191026 30 178 0.0 0.0 0.00 0.00 0.00 66 1017.7
20260830190521 30 195 0.0 0.0 0.00 0.00 0.00 67 1017.8
20260830190016 30 196 0.0 0.0 0.00 0.00 0.00 66 1017.9
20260830185510 30 198 0.0 0.0 0.00 0.00 0.00 69 1018.0
20260830185006 30 203 0.0 0.0 0.00 0.00 0.00 67 1018.0
20260830184505 30 214 0.0 0.0 0.00 0.00 0.00 71 1018.2
20260830183959 30 221 0.0 0.0 0.00 0.00 0.00 69 1018.2
20260830183459 30 206 0.0 0.0 0.00 0.00 0.00 69 1018.2
20260830182954 30 207 0.0 0.0 0.00 0.00 0.00 71 1018.2
20260830182450 30 207 0.0 0.0 0.00 0.00 0.00 72 1018.2
20260830181946 30 200 0.0 0.0 0.00 0.00 0.00 74 1018.2
20260830181442 30 216 0.0 0.0 0.00 0.00 0.00 72 1018.5
20260830180936 30 207 0.0 0.0 0.00 0.00 0.00 71 1018.5
20260830180436 30 213 0.0 0.0 0.00 0.00 0.00 72 1018.6
20260830175935 30 203 0.0 0.0 0.00 0.00 0.00 72 1018.8
20260830175434 30 209 0.0 0.0 0.00 0.00 0.00 73 1018.5
20260830174925 30 213 0.0 0.0 0.00 0.00 0.00 74 1018.5
20260830174420 30 211 0.0 0.0 0.00 0.00 0.00 74 1018.5
20260830173915 30 206 0.0 0.0 0.00 0.00 0.00 72 1018.5
20260830173411 30 213 0.0 0.0 0.00 0.00 0.00 73 1018.6
20260830172907 30 196 0.0 0.0 0.00 0.00 0.00 72 1018.6
20260830172403 30 206 0.0 0.0 0.00 0.00 0.00 72 1018.9
20260830171858 30 212 0.0 0.0 0.00 0.00 0.00 73 1018.8
20260830171354 29 203 0.0 0.0 0.00 0.00 0.00 77 1018.9
20260830170848 28 203 0.0 0.0 0.00 0.00 0.00 79 1019.1
20260830170348 28 201 0.0 0.0 0.00 0.00 0.00 78 1019.1
20260830165846 28 222 0.0 0.0 0.00 0.00 0.00 76 1019.2
20260830165343 29 210 0.0 0.0 0.00 0.00 0.00 74 1019.2
20260830164839 30 173 1.6 3.2 0.00 0.00 0.00 74 1019.0
20260830164334 30 199 0.0 0.0 0.00 0.00 0.00 75 1019.5
20260830163831 30 190 0.0 0.0 0.00 0.00 0.00 75 1019.4
20260830163326 29 182 1.6 1.6 0.00 0.00 0.00 76 1019.4
20260830162821 29 203 0.0 0.0 0.00 0.00 0.00 76 1019.4
20260830162317 29 214 0.0 0.0 0.00 0.00 0.00 77 1019.2
20260830161812 29 206 0.0 0.0 0.00 0.00 0.00 77 1019.3
20260830161311 28 222 0.0 0.0 0.00 0.00 0.00 76 1019.3
20260830160806 28 187 0.0 0.0 0.00 0.00 0.00 78 1019.4
20260830160301 28 190 0.0 0.0 0.00 0.00 0.00 79 1019.3
20260830155757 28 197 0.0 0.0 0.00 0.00 0.00 79 1019.5
20260830155254 28 202 0.0 0.0 0.00 0.00 0.00 77 1019.2
20260830154753 28 200 0.0 0.0 0.00 0.00 0.00 79 1019.4
20260830154249 28 197 0.0 0.0 0.00 0.00 0.00 80 1019.6
20260830153746 28 207 0.0 0.0 0.00 0.00 0.00 80 1019.2
20260830153241 27 204 0.0 0.0 0.00 0.00 0.00 81 1019.2
20260830152739 27 201 0.0 0.0 0.00 0.00 0.00 80 1019.1
20260830152234 27 204 0.0 0.0 0.00 0.00 0.00 82 1019.3
20260830151733 27 211 0.0 0.0 0.00 0.00 0.00 82 1019.2
20260830151233 27 198 0.0 0.0 0.00 0.00 0.00 82 1019.4
20260830150728 27 212 0.0 0.0 0.00 0.00 0.00 82 1019.4
20260830150228 27 224 0.0 0.0 0.00 0.00 0.00 82 1019.4
20260830145723 27 233 0.0 0.0 0.00 0.00 0.00 82 1019.4
20260830145218 27 216 0.0 0.0 0.00 0.00 0.00 83 1019.3
20260830144713 26 204 0.0 0.0 0.00 0.00 0.00 83 1019.3
20260830144209 26 200 0.0 0.0 0.00 0.00 0.00 84 1019.2
20260830143705 26 192 1.6 3.2 0.00 0.00 0.00 85 1019.1
20260830143202 26 209 0.0 0.0 0.00 0.00 0.00 85 1019.4
20260830142658 26 199 0.0 0.0 0.00 0.00 0.00 86 1019.4
20260830142153 25 207 0.0 0.0 0.00 0.00 0.00 88 1019.4
20260830141648 25 190 0.0 0.0 0.00 0.00 0.00 89 1019.2
20260830141143 25 193 0.0 0.0 0.00 0.00 0.00 89 1019.1
20260830140638 25 200 0.0 0.0 0.00 0.00 0.00 90 1019.1
20260830140139 25 202 0.0 0.0 0.00 0.00 0.00 90 1019.2
20260830135634 24 201 0.0 0.0 0.00 0.00 0.00 90 1019.2
20260830135128 24 201 0.0 0.0 0.00 0.00 0.00 90 1019.1
20260830134625 23 202 0.0 0.0 0.00 0.00 0.00 91 1019.1
20260830134120 23 202 0.0 0.0 0.00 0.00 0.00 91 1019.1
20260830133615 23 202 0.0 0.0 0.00 0.00 0.00 92 1019.1
20260830133110 23 202 0.0 0.0 0.00 0.00 0.00 92 1019.0
20260830132607 22 202 0.0 0.0 0.00 0.00 0.00 93 1019.2
20260830132102 22 202 0.0 0.0 0.00 0.00 0.00 93 1019.2
20260830131601 22 201 0.0 0.0 0.00 0.00 0.00 93 1019.3
20260830131055 22 201 0.0 0.0 0.00 0.00 0.00 93 1019.3
20260830130550 22 201 0.0 0.0 0.00 0.00 0.00 93 1019.2
20260830130046 22 200 0.0 0.0 0.00 0.00 0.00 93 1019.2
20260830125540 22 204 0.0 0.0 0.00 0.00 0.00 93 1019.1
20260830125039 22 205 0.0 0.0 0.00 0.00 0.00 94 1019.3
20260830124538 21 205 0.0 0.0 0.00 0.00 0.00 94 1019.1
20260830124034 21 205 0.0 0.0 0.00 0.00 0.00 94 1019.1
20260830123531 21 205 0.0 0.0 0.00 0.00 0.00 95 1019.1
20260830123026 21 203 0.0 0.0 0.00 0.00 0.00 96 1019.0
20260830122522 20 211 0.0 0.0 0.00 0.00 0.00 96 1018.9
20260830122018 20 212 0.0 0.0 0.00 0.00 0.00 95 1018.9
20260830121514 20 212 0.0 0.0 0.00 0.00 0.00 96 1018.7
20260830121013 20 212 0.0 0.0 0.00 0.00 0.00 97 1018.8
20260830120509 20 212 0.0 0.0 0.00 0.00 0.00 97 1018.9
20260830120006 20 222 0.0 0.0 0.00 0.00 0.00 97 1018.8
20260830115501 19 222 0.0 0.0 0.00 0.00 0.00 96 1018.7
20260830114956 20 223 0.0 0.0 0.00 0.00 0.00 97 1018.5
20260830114453 20 223 0.0 0.0 0.00 0.00 0.00 97 1018.6
20260830113952 20 223 0.0 0.0 0.00 0.00 0.00 97 1018.4
20260830113447 19 223 0.0 0.0 0.00 0.00 0.00 97 1018.5
20260830112943 19 223 0.0 0.0 0.00 0.00 0.00 97 1018.3
20260830112439 19 223 0.0 0.0 0.00 0.00 0.00 97 1018.4
20260830111935 20 223 0.0 0.0 0.00 0.00 0.00 97 1018.3
20260830111430 19 223 0.0 0.0 0.00 0.00 0.00 97 1017.9
20260830110926 19 223 0.0 0.0 0.00 0.00 0.00 97 1018.3
20260830110421 19 223 0.0 0.0 0.00 0.00 0.00 97 1018.3
20260830105920 20 224 0.0 0.0 0.00 0.00 0.00 97 1018.3
20260830105417 19 223 0.0 0.0 0.00 0.00 0.00 96 1018.3
20260830104912 19 224 0.0 0.0 0.00 0.00 0.00 97 1018.3
20260830104408 19 224 0.0 0.0 0.00 0.00 0.00 97 1018.2
20260830103903 19 223 0.0 0.0 0.00 0.00 0.00 96 1018.2
20260830103358 19 224 0.0 0.0 0.00 0.00 0.00 96 1018.1
20260830102856 19 222 0.0 0.0 0.00 0.00 0.00 96 1018.2
20260830102352 20 224 0.0 0.0 0.00 0.00 0.00 96 1018.2
20260830101849 19 221 0.0 0.0 0.00 0.00 0.00 96 1017.9
20260830101348 20 221 0.0 0.0 0.00 0.00 0.00 96 1018.1
20260830100843 19 220 0.0 0.0 0.00 0.00 0.00 96 1018.0
20260830100342 20 237 0.0 0.0 0.00 0.00 0.00 96 1018.1
20260830095841 20 233 0.0 0.0 0.00 0.00 0.00 96 1018.0
20260830095337 20 230 0.0 0.0 0.00 0.00 0.00 96 1017.9
20260830094833 20 228 0.0 0.0 0.00 0.00 0.00 96 1018.0
20260830094329 20 231 0.0 0.0 0.00 0.00 0.00 95 1018.0
20260830093824 20 217 0.0 0.0 0.00 0.00 0.00 95 1018.1
20260830093319 20 216 0.0 0.0 0.00 0.00 0.00 95 1017.9
20260830092814 20 217 0.0 0.0 0.00 0.00 0.00 95 1017.8
20260830092310 20 216 0.0 0.0 0.00 0.00 0.00 95 1018.0
20260830091807 20 213 0.0 0.0 0.00 0.00 0.00 95 1017.9
20260830091306 20 230 0.0 0.0 0.00 0.00 0.00 95 1017.9
20260830090805 20 224 0.0 0.0 0.00 0.00 0.00 95 1018.0
20260830090301 20 222 0.0 0.0 0.00 0.00 0.00 95 1017.9
20260830085801 20 224 0.0 0.0 0.00 0.00 0.00 95 1017.7
20260830085256 20 216 0.0 0.0 0.00 0.00 0.00 95 1018.0
20260830084751 20 215 0.0 0.0 0.00 0.00 0.00 95 1017.8
20260830084247 20 211 0.0 0.0 0.00 0.00 0.00 94 1017.8
20260830083742 20 221 0.0 0.0 0.00 0.00 0.00 94 1017.4
20260830083238 20 221 0.0 0.0 0.00 0.00 0.00 93 1017.7
20260830082737 20 240 0.0 0.0 0.00 0.00 0.00 93 1017.9
20260830082233 20 227 0.0 0.0 0.00 0.00 0.00 92 1017.9
20260830081728 20 227 0.0 0.0 0.00 0.00 0.00 92 1017.9
20260830081228 21 228 0.0 0.0 0.00 0.00 0.00 90 1017.7
20260830080722 21 229 0.0 0.0 0.00 0.00 0.00 90 1017.7
20260830080218 21 227 0.0 0.0 0.00 0.00 0.00 90 1017.8
20260830075717 20 242 0.0 0.0 0.00 0.00 0.00 91 1017.5
20260830075213 20 224 0.0 0.0 0.00 0.00 0.00 92 1017.5
20260830074708 20 223 0.0 0.0 0.00 0.00 0.00 92 1017.3
20260830074204 20 211 0.0 0.0 0.00 0.00 0.00 92 1017.5
20260830073700 20 211 0.0 0.0 0.00 0.00 0.00 91 1017.4
20260830073156 20 211 0.0 0.0 0.00 0.00 0.00 92 1017.7